FW3284 Weather Reports


Display with metric or nautical units.
time (UTC)temp
F
wind
direction
speed
MPH
gust
MPH
rain 1hr
in
rain 24hr
in
rain mn
in
humidity
%
barometer
mb
20260831014518 85 258 0.0 4.0 0.00 0.00 0.00 48 1012.8
20260831013057 85 156 1.0 4.0 0.00 0.00 0.00 48 1012.5
20260831013002 85 156 1.0 4.0 0.00 0.00 0.00 48 1012.4
20260831011546 85 217 1.0 5.0 0.00 0.00 0.00 49 1012.2
20260831010027 84 155 1.0 3.0 0.00 0.00 0.00 53 1012.1
20260831004509 84 148 0.0 6.0 0.00 0.00 0.00 55 1012.2
20260831003050 85 141 0.0 3.0 0.00 0.00 0.00 56 1012.3
20260831001533 86 169 0.0 2.0 0.00 0.00 0.00 54 1012.3
20260831000016 87 146 0.0 3.0 0.00 0.00 0.00 53 1012.4
20260830234602 88 152 0.0 3.0 0.00 0.00 0.00 51 1012.5
20260830233038 89 163 0.0 2.0 0.00 0.00 0.00 50 1012.5
20260830231518 90 150 0.0 2.0 0.00 0.00 0.00 47 1012.5
20260830230008 91 166 1.0 3.0 0.00 0.00 0.00 45 1012.5
20260830224536 93 131 1.0 5.0 0.00 0.00 0.00 43 1012.5
20260830223022 92 135 1.0 4.0 0.00 0.00 0.00 42 1012.5
20260830221502 93 149 1.0 6.0 0.00 0.00 0.00 43 1012.5
20260830220039 94 80 2.0 11.0 0.00 0.00 0.00 40 1012.6
20260830214528 95 170 2.0 8.0 0.00 0.00 0.00 38 1012.7
20260830213004 95 236 1.0 5.0 0.00 0.00 0.00 40 1012.8
20260830211544 95 264 1.0 6.0 0.00 0.00 0.00 40 1012.8
20260830210015 96 105 0.0 3.0 0.00 0.00 0.00 38 1013.0
20260830204554 97 148 1.0 6.0 0.00 0.00 0.00 38 1013.1
20260830203045 96 240 1.0 4.0 0.00 0.00 0.00 38 1013.2
20260830201506 96 299 1.0 7.0 0.00 0.00 0.00 39 1013.4
20260830200049 97 208 2.0 5.0 0.00 0.00 0.00 37 1013.4
20260830194521 96 239 2.0 7.0 0.00 0.00 0.00 39 1013.6
20260830193009 95 211 3.0 10.0 0.00 0.00 0.00 39 1013.9
20260830191545 95 240 2.0 7.0 0.00 0.00 0.00 39 1013.9
20260830190030 94 246 4.0 10.0 0.00 0.00 0.00 40 1014.1
20260830184524 93 143 2.0 12.0 0.00 0.00 0.00 41 1014.2
20260830183045 94 266 2.0 8.0 0.00 0.00 0.00 41 1014.4
20260830181528 92 258 4.0 9.0 0.00 0.00 0.00 42 1014.5
20260830180058 92 261 3.0 10.0 0.00 0.00 0.00 42 1014.7
20260830174546 90 206 5.0 10.0 0.00 0.00 0.00 43 1014.9
20260830173036 91 285 1.0 10.0 0.00 0.00 0.00 43 1015.2
20260830171510 90 259 3.0 8.0 0.00 0.00 0.00 44 1015.3
20260830170044 90 156 1.0 8.0 0.00 0.00 0.00 46 1015.4
20260830164523 87 243 3.0 10.0 0.00 0.00 0.00 47 1015.6
20260830163012 87 131 1.0 10.0 0.00 0.00 0.00 48 1015.7
20260830161548 85 236 1.0 7.0 0.00 0.00 0.00 49 1015.8
20260830160034 86 245 3.0 10.0 0.00 0.00 0.00 49 1015.7
20260830154517 86 275 2.0 11.0 0.00 0.00 0.00 49 1015.6
20260830153048 84 185 2.0 11.0 0.00 0.00 0.00 52 1015.6
20260830151525 83 142 2.0 7.0 0.00 0.00 0.00 53 1015.5
20260830150010 82 263 4.0 10.0 0.00 0.00 0.00 52 1015.3
20260830144558 81 158 3.0 9.0 0.00 0.00 0.00 53 1015.4
20260830143036 80 101 2.0 11.0 0.00 0.00 0.00 54 1015.5
20260830141514 80 252 2.0 9.0 0.00 0.00 0.00 53 1015.3
20260830140050 79 91 3.0 9.0 0.00 0.00 0.00 53 1015.5
20260830134534 79 175 3.0 6.0 0.00 0.00 0.00 53 1015.6
20260830133012 79 221 1.0 8.0 0.00 0.00 0.00 54 1015.5
20260830131550 78 179 1.0 4.0 0.00 0.00 0.00 54 1015.4
20260830130036 76 158 1.0 5.0 0.00 0.00 0.00 55 1015.5
20260830124553 75 167 1.0 4.0 0.00 0.00 0.00 57 1015.4
20260830123038 74 134 1.0 4.0 0.00 0.00 0.00 59 1015.4
20260830121513 72 174 0.0 3.0 0.00 0.00 0.00 61 1015.4
20260830120057 71 201 0.0 3.0 0.00 0.00 0.00 62 1015.3
20260830114547 71 120 1.0 5.0 0.00 0.00 0.00 63 1015.2
20260830113026 71 314 0.0 3.0 0.00 0.00 0.00 63 1015.3
20260830111514 71 154 1.0 3.0 0.00 0.00 0.00 63 1015.2
20260830110052 72 150 0.0 2.0 0.00 0.00 0.00 63 1015.3
20260830104541 72 160 0.0 4.0 0.00 0.00 0.00 64 1015.2
20260830103018 72 127 1.0 3.0 0.00 0.00 0.00 64 1015.1
20260830101504 71 153 1.0 4.0 0.00 0.00 0.00 64 1015.1
20260830100041 72 237 0.0 3.0 0.00 0.00 0.00 64 1015.1
20260830094528 72 165 1.0 4.0 0.00 0.00 0.00 63 1015.1
20260830093020 73 162 1.0 5.0 0.00 0.00 0.00 61 1015.2
20260830091544 73 208 1.0 4.0 0.00 0.00 0.00 61 1015.2
20260830090030 73 349 0.0 5.0 0.00 0.00 0.00 61 1015.2
20260830084510 74 181 1.0 7.0 0.00 0.00 0.00 60 1015.0
20260830083056 74 180 2.0 5.0 0.00 0.00 0.00 59 1015.1
20260830081536 75 27 2.0 9.0 0.00 0.00 0.00 58 1015.0
20260830080018 75 240 2.0 6.0 0.00 0.00 0.00 58 1014.9
20260830074555 74 278 1.0 6.0 0.00 0.00 0.00 59 1014.8
20260830074502 74 139 1.0 6.0 0.00 0.00 0.00 59 1014.8
20260830073035 74 214 1.0 3.0 0.00 0.00 0.00 60 1014.8
20260830071518 74 173 1.0 6.0 0.00 0.00 0.00 61 1014.9
20260830070052 72 93 1.0 4.0 0.00 0.00 0.00 63 1015.0
20260830064536 71 138 2.0 5.0 0.00 0.00 0.00 64 1015.0
20260830063014 72 127 0.0 2.0 0.00 0.00 0.00 63 1015.2
20260830061600 72 146 0.0 2.0 0.00 0.00 0.00 61 1015.1
20260830061505 72 162 0.0 2.0 0.00 0.00 0.00 61 1015.1
20260830060034 73 113 0.0 2.0 0.00 0.00 0.00 61 1015.2
20260830054518 73 115 0.0 3.0 0.00 0.00 0.00 60 1015.2
20260830053101 73 110 1.0 3.0 0.00 0.00 0.00 60 1015.2
20260830051540 72 113 0.0 2.0 0.00 0.00 0.00 60 1015.3
20260830050020 73 113 0.0 5.0 0.00 0.00 0.00 59 1015.2
20260830044614 75 154 1.0 5.0 0.00 0.00 0.00 56 1015.2
20260830043030 78 278 0.0 4.0 0.00 0.00 0.00 52 1015.1
20260830041517 79 248 2.0 5.0 0.00 0.00 0.00 51 1015.1
20260830040059 79 224 2.0 6.0 0.00 0.00 0.00 50 1015.0
20260830034542 77 206 1.0 4.0 0.00 0.00 0.00 51 1015.2
20260830033022 75 88 0.0 2.0 0.00 0.00 0.00 58 1015.1
20260830031504 75 118 1.0 4.0 0.00 0.00 0.00 58 1015.0
20260830030040 75 143 0.0 4.0 0.00 0.00 0.00 58 1015.2
20260830024523 76 118 0.0 2.0 0.00 0.00 0.00 59 1015.2
20260830023058 77 134 0.0 2.0 0.00 0.00 0.00 57 1015.0
20260830023002 77 134 0.0 2.0 0.00 0.00 0.00 56 1015.0
20260830021545 79 83 1.0 2.0 0.00 0.00 0.00 54 1014.9
20260830020037 80 146 0.0 3.0 0.00 0.00 0.00 52 1014.7